This is the latest recevied weather packets stored in our database for station/object TG8ARF-18. If no packets are shown the sender has not sent any weather packets the latest 10 day(s).
| Time | Temp. | Humidity | Pressure | Rain* | Wind** | Luminosity | Snow |
|---|---|---|---|---|---|---|---|
| 1778014088 | 25.56° C | 76% | 1014 hPa | 0 mm | - | - | - |
| 1778013487 | 22.22° C | 73% | 1014 hPa | 0 mm | - | - | - |
| 1778012887 | 21.11° C | 73% | 1014 hPa | 0 mm | - | - | - |
| 1778012286 | 20° C | 73% | 1014 hPa | 0 mm | - | - | - |
| 1778011685 | 18.89° C | 73% | 1014 hPa | 0 mm | - | - | - |
| 1778011085 | 17.78° C | 73% | 1014 hPa | 0 mm | - | - | - |
| 1778010484 | 25° C | 73% | 1014 hPa | 0 mm | - | - | - |
| 1778009884 | 25.56° C | 70% | 1015 hPa | 0 mm | - | - | - |
| 1778009283 | 25.56° C | 70% | 1015 hPa | 0 mm | - | - | - |
| 1778008683 | 25.56° C | 63% | 1015 hPa | 0 mm | - | - | - |
| 1778008082 | 25.56° C | 63% | 1015 hPa | 0 mm | - | - | - |
| 1778007482 | 25.56° C | 64% | 1015 hPa | 0 mm | - | - | - |
| 1778006881 | 25° C | 64% | 1015 hPa | 0 mm | - | - | - |
| 1778006280 | 25° C | 64% | 1015 hPa | 0 mm | - | - | - |
| 1778005680 | 24.44° C | 67% | 1016 hPa | 0 mm | - | - | - |
| 1778005079 | 23.33° C | 67% | 1016 hPa | 0 mm | - | - | - |
| 1778004479 | 22.22° C | 67% | 1016 hPa | 0 mm | - | - | - |
| 1778003878 | 21.11° C | 67% | 1016 hPa | 0 mm | - | - | - |
| 1778003278 | 20° C | 67% | 1016 hPa | 0 mm | - | - | - |
| 1778002677 | 18.89° C | 67% | 1016 hPa | 0 mm | - | - | - |
| 1778002076 | 22.78° C | 69% | 1016 hPa | 0 mm | - | - | - |
| 1778001476 | 21.67° C | 69% | 1016 hPa | 0 mm | - | - | - |
| 1778000875 | 20.56° C | 69% | 1016 hPa | 0 mm | - | - | - |
| 1778000275 | 19.44° C | 69% | 1016 hPa | 0 mm | - | - | - |
| 1777999674 | 22.78° C | 75% | 1016 hPa | 0 mm | - | - | - |
* Rain latest hour (hover to see other rain measurements)
** Current wind speed in m/s (hover to see current wind gust speed)